When you browse on this site, cookies collect data to enhance your experience and personalize the content and advertising you see.
Visit our Privacy Policy to learn more. By continuing to use the site, you agree to this use of cookies and data.
  • en France
  • Liste des pays
  • À 7 jours
  • Température de l'eau
  • Carte satellitaire
  • Carte météo
  • Widgets météo
  • user-avatar
    Se connecter

    Météo par heure à Orléans

    Ce jour, 18 Juin, Mardi

    Heure Température Précipitation Vent Pression Humidité
    00:00 +17°C° 0 mm 2 m/s 751 mmHg 88%
    01:00 +17°C° 0 mm 2 m/s 751 mmHg 89%
    02:00 +16°C° 0 mm 2 m/s 751 mmHg 91%
    03:00 +16°C° 0 mm 2 m/s 750 mmHg 92%
    04:00 +17°C° 0 mm 2 m/s 750 mmHg 90%
    05:00 +18°C° 0 mm 2 m/s 750 mmHg 88%
    06:00 +19°C° 0 mm 3 m/s 750 mmHg 85%
    07:00 +20°C° 0 mm 3 m/s 750 mmHg 80%
    08:00 +22°C° 0 mm 3 m/s 750 mmHg 75%
    09:00 +25°C° 0 mm 3 m/s 749 mmHg 70%
    10:00 +26°C° 0 mm 3 m/s 749 mmHg 66%
    11:00 +27°C° 0 mm 3 m/s 749 mmHg 61%
    12:00 +29°C° 0 mm 3 m/s 748 mmHg 57%
    13:00 +29°C° 0 mm 3 m/s 748 mmHg 54%
    14:00 +30°C° 0 mm 3 m/s 748 mmHg 51%
    15:00 +31°C° 0 mm 3 m/s 747 mmHg 48%
    16:00 +30°C° 0 mm 3 m/s 747 mmHg 53%
    17:00 +29°C° 0 mm 2 m/s 747 mmHg 59%
    18:00 +28°C° 0 mm 2 m/s 746 mmHg 64%
    19:00 +26°C° 0 mm 2 m/s 746 mmHg 69%
    20:00 +24°C° 0 mm 2 m/s 746 mmHg 74%
    21:00 +23°C° 0 mm 2 m/s 746 mmHg 78%
    22:00 +21°C° 0 mm 2 m/s 746 mmHg 79%
    23:00 +21°C° 0 mm 3 m/s 746 mmHg 80%

    Demain, 19 Juin, Mercredi

    Heure Température Précipitation Vent Pression Humidité
    00:00 +20°C° 0 mm 4 m/s 746 mmHg 81%
    01:00 +20°C° 0.4 mm 3 m/s 746 mmHg 83%
    02:00 +19°C° 0.4 mm 3 m/s 746 mmHg 84%
    03:00 +18°C° 0.4 mm 3 m/s 746 mmHg 86%
    04:00 +18°C° 0 mm 3 m/s 746 mmHg 86%
    05:00 +18°C° 0 mm 3 m/s 746 mmHg 86%
    06:00 +18°C° 0 mm 3 m/s 747 mmHg 86%
    07:00 +19°C° 0 mm 4 m/s 747 mmHg 81%
    08:00 +21°C° 0 mm 4 m/s 747 mmHg 75%
    09:00 +22°C° 0 mm 4 m/s 748 mmHg 70%
    10:00 +23°C° 0 mm 4 m/s 748 mmHg 67%
    11:00 +23°C° 0 mm 4 m/s 748 mmHg 65%
    12:00 +25°C° 0 mm 4 m/s 748 mmHg 62%
    13:00 +25°C° 0.4 mm 5 m/s 748 mmHg 63%
    14:00 +25°C° 0.4 mm 5 m/s 748 mmHg 64%
    15:00 +25°C° 0.4 mm 5 m/s 748 mmHg 65%
    16:00 +23°C° 0.3 mm 4 m/s 748 mmHg 70%
    17:00 +22°C° 0.3 mm 4 m/s 748 mmHg 75%
    18:00 +21°C° 0.3 mm 3 m/s 748 mmHg 80%
    19:00 +20°C° 0 mm 3 m/s 748 mmHg 83%
    20:00 +19°C° 0 mm 2 m/s 749 mmHg 86%
    21:00 +17°C° 0 mm 2 m/s 749 mmHg 89%
    22:00 +17°C° 0 mm 2 m/s 749 mmHg 90%
    23:00 +17°C° 0 mm 2 m/s 749 mmHg 91%

    Après-demain, 20 Juin, Jeudi

    Heure Température Précipitation Vent Pression Humidité
    00:00 +16°C° 0 mm 2 m/s 749 mmHg 92%
    01:00 +16°C° 0 mm 2 m/s 749 mmHg 93%
    02:00 +15°C° 0 mm 2 m/s 749 mmHg 93%
    03:00 +15°C° 0 mm 2 m/s 749 mmHg 94%
    04:00 +16°C° 0 mm 2 m/s 749 mmHg 93%
    05:00 +16°C° 0 mm 2 m/s 749 mmHg 92%
    06:00 +17°C° 0 mm 3 m/s 749 mmHg 90%
    07:00 +18°C° 0.1 mm 3 m/s 750 mmHg 85%
    08:00 +19°C° 0.1 mm 3 m/s 750 mmHg 80%
    09:00 +20°C° 0.1 mm 3 m/s 750 mmHg 75%
    10:00 +20°C° 0.5 mm 3 m/s 750 mmHg 77%
    11:00 +20°C° 0.5 mm 3 m/s 750 mmHg 78%
    12:00 +20°C° 0.5 mm 3 m/s 750 mmHg 79%
    13:00 +21°C° 0.3 mm 3 m/s 750 mmHg 76%
    14:00 +21°C° 0.3 mm 3 m/s 750 mmHg 73%
    15:00 +22°C° 0.3 mm 3 m/s 751 mmHg 69%
    16:00 +21°C° 0.1 mm 3 m/s 751 mmHg 72%
    17:00 +20°C° 0.1 mm 3 m/s 751 mmHg 74%
    18:00 +20°C° 0.1 mm 3 m/s 751 mmHg 76%
    19:00 +18°C° 0 mm 3 m/s 752 mmHg 77%
    20:00 +17°C° 0 mm 3 m/s 752 mmHg 79%
    21:00 +14°C° 0 mm 3 m/s 753 mmHg 80%
    22:00 +14°C° 0 mm 3 m/s 753 mmHg 80%
    23:00 +13°C° 0 mm 3 m/s 753 mmHg 80%

    21 Juin, Vendredi

    Heure Température Précipitation Vent Pression Humidité
    00:00 +13°C° 0 mm 3 m/s 753 mmHg 80%
    01:00 +13°C° 0 mm 2 m/s 753 mmHg 83%
    02:00 +12°C° 0 mm 2 m/s 753 mmHg 85%
    03:00 +10°C° 0 mm 2 m/s 753 mmHg 87%
    04:00 +12°C° 0 mm 2 m/s 754 mmHg 84%
    05:00 +13°C° 0 mm 2 m/s 754 mmHg 80%
    06:00 +13°C° 0 mm 2 m/s 754 mmHg 77%
    07:00 +15°C° 0 mm 2 m/s 754 mmHg 71%
    08:00 +17°C° 0 mm 2 m/s 754 mmHg 65%
    09:00 +18°C° 0 mm 2 m/s 754 mmHg 59%
    10:00 +19°C° 0 mm 2 m/s 754 mmHg 56%
    11:00 +20°C° 0 mm 2 m/s 754 mmHg 54%
    12:00 +21°C° 0 mm 2 m/s 754 mmHg 51%
    13:00 +21°C° 0 mm 2 m/s 754 mmHg 52%
    14:00 +21°C° 0 mm 3 m/s 754 mmHg 52%
    15:00 +21°C° 0 mm 3 m/s 754 mmHg 53%
    16:00 +21°C° 0 mm 3 m/s 754 mmHg 57%
    17:00 +20°C° 0 mm 3 m/s 754 mmHg 62%
    18:00 +20°C° 0 mm 3 m/s 754 mmHg 66%
    19:00 +18°C° 0 mm 3 m/s 754 mmHg 69%
    20:00 +17°C° 0 mm 3 m/s 754 mmHg 73%
    21:00 +14°C° 0 mm 3 m/s 755 mmHg 76%
    22:00 +13°C° 0 mm 3 m/s 755 mmHg 80%
    23:00 +14°C° 0 mm 2 m/s 755 mmHg 84%

    22 Juin, Samedi

    Heure Température Précipitation Vent Pression Humidité
    00:00 +13°C° 0 mm 2 m/s 755 mmHg 87%
    01:00 +13°C° 0 mm 2 m/s 755 mmHg 88%
    02:00 +12°C° 0 mm 2 m/s 755 mmHg 89%
    03:00 +12°C° 0 mm 2 m/s 754 mmHg 90%
    04:00 +13°C° 0 mm 2 m/s 754 mmHg 87%
    05:00 +13°C° 0 mm 2 m/s 755 mmHg 83%
    06:00 +13°C° 0 mm 3 m/s 755 mmHg 79%
    07:00 +16°C° 0 mm 3 m/s 755 mmHg 74%
    08:00 +17°C° 0 mm 3 m/s 754 mmHg 68%
    09:00 +19°C° 0 mm 3 m/s 754 mmHg 62%
    10:00 +20°C° 0 mm 3 m/s 754 mmHg 59%
    11:00 +21°C° 0 mm 3 m/s 754 mmHg 55%
    12:00 +22°C° 0 mm 3 m/s 754 mmHg 51%
    13:00 +22°C° 0 mm 3 m/s 753 mmHg 52%
    14:00 +22°C° 0 mm 3 m/s 753 mmHg 52%
    15:00 +24°C° 0 mm 3 m/s 753 mmHg 52%
    16:00 +22°C° 0 mm 3 m/s 753 mmHg 57%
    17:00 +22°C° 0 mm 3 m/s 752 mmHg 62%
    18:00 +21°C° 0 mm 3 m/s 752 mmHg 68%
    19:00 +20°C° 0 mm 3 m/s 752 mmHg 73%
    20:00 +18°C° 0 mm 3 m/s 753 mmHg 78%
    21:00 +16°C° 0 mm 3 m/s 753 mmHg 83%
    22:00 +16°C° 0 mm 3 m/s 753 mmHg 84%
    23:00 +14°C° 0 mm 3 m/s 752 mmHg 85%

    23 Juin, Dimanche

    Heure Température Précipitation Vent Pression Humidité
    00:00 +14°C° 0 mm 3 m/s 752 mmHg 86%
    01:00 +14°C° 0 mm 3 m/s 752 mmHg 86%
    02:00 +14°C° 0 mm 3 m/s 751 mmHg 86%
    03:00 +14°C° 0 mm 3 m/s 751 mmHg 86%
    04:00 +14°C° 0 mm 4 m/s 751 mmHg 84%
    05:00 +15°C° 0 mm 4 m/s 751 mmHg 82%
    06:00 +15°C° 0 mm 4 m/s 751 mmHg 80%
    07:00 +18°C° 0 mm 4 m/s 751 mmHg 75%
    08:00 +20°C° 0 mm 4 m/s 751 mmHg 70%
    09:00 +22°C° 0 mm 4 m/s 751 mmHg 64%
    10:00 +23°C° 0 mm 4 m/s 750 mmHg 62%
    11:00 +26°C° 0 mm 4 m/s 750 mmHg 60%
    12:00 +27°C° 0 mm 5 m/s 750 mmHg 57%
    13:00 +28°C° 0 mm 5 m/s 750 mmHg 58%
    14:00 +28°C° 0 mm 5 m/s 749 mmHg 59%
    15:00 +29°C° 0 mm 5 m/s 749 mmHg 60%
    16:00 +28°C° 0 mm 4 m/s 749 mmHg 65%
    17:00 +28°C° 0 mm 4 m/s 749 mmHg 69%
    18:00 +27°C° 0 mm 4 m/s 748 mmHg 74%
    19:00 +26°C° 0 mm 3 m/s 748 mmHg 79%
    20:00 +25°C° 0 mm 3 m/s 749 mmHg 83%
    21:00 +23°C° 0 mm 2 m/s 749 mmHg 88%
    22:00 +23°C° 0 mm 2 m/s 749 mmHg 88%
    23:00 +23°C° 0 mm 2 m/s 749 mmHg 88%
    Voir plus